Torna al catalogo

HULIANWANG DIGUI-72

AttivoComunicazioniPO
NORAD 65232·PAYLOAD·🇨🇳 China

Lanciato Aug 17, 2025 da Taiyuan Satellite Launch Center

Loading…

Prossimi Passaggi (prossime 24 ore)

TLE

AggiornatoSource: Space-Track

Epoca: Sep 14, 2026, 14:59 UTC

1 65232U 25178E   26257.62492913  .00000045  00000-0  70549-4 0  9997
2 65232  86.5041 343.3335 0001580 106.0415 254.0893 13.24412742 52153

Traccia HULIANWANG DIGUI-72 in tempo reale con AllMySat

Download on the App Store